STARLINK-33751, 63512

Orbit data source: Space-Track

STARLINK-33751, 63512 is a payload satellite owned by SpaceX/Seattle (US) in LEO that was launched on Mon, 07 Apr 2025 UTC via an FALCON 9 launch vehicle from the Air Force Western Test Range (AFWTR). Payload-class satellites include a variety of spacecraft equipped with specific instruments for various scientific and technological missions. These include communications satellites like Starlink; space stations such as the ISS; scientific satellites like the Hubble; Earth observation satellites from companies like Planet Labs, Umbra, and HawkEye 360; GPS; miniature CubeSats for education and research; and military/defense satellites.

Loading next visibility...
Identifier
63512, 2025-071V
Orbit
LEO
Country
Flag of USUS
Related business
Manufacturer
SpaceX/Seattle
Mission
Operational Commercial Communications
Bus & Motor
STARLINK V2MO, Unknown motor
Mass
575 kg wet, ~530 kg dry
Launch date (UTC)
2025-04-07 (1 year ago)
Launch vehicle
FALCON 9
Launch site
Air Force Western Test Range (AFWTR)
Object type
Payload
Rocket body
Debris
Shape & HBR
Box + 1 Pan, 17.7 m
Radar Cross Section
41.120 m², Large (>1 m²)

Expand to show TLE details & history
Last TLE update: 1 day ago

TLE from 1 day ago
0 STARLINK-33751
1 63512U 25071V   26262.12547015  .00009609  00000-0  32079-3 0  9993
2 63512  53.1591 320.1305 0001225  89.5896 270.5245 15.31721080 82386
Epoch: 2026-09-19T03:00Z
TLE epoch observation values (Epoch: 2026-09-19T03:00:40.620Z)
Latitude
-0.00011°
Longitude
-83.07732°
Altitude
471.57 km
Speed
7.631 km/s
True Right ascension
21h 20m 31s
True Declination
0° 00' 00"
Sunlit
Object was in full shadow at epoch
Visualization orbit readout
Latitude
Unknown
Longitude
Unknown
Altitude
Unknown
Speed
Unknown
Apparent Right ascension
Unknown
Apparent Declination
Unknown
Sunlit
N/A
Visualization observer readout
Local Sidereal Time
03:43:08
Azimuth
Unknown
Elevation
Unknown
Doppler factor
Unknown
Orbital elements
Apogee altitude
471.773 km
Perigee altitude
470.095 km
Semi-major axis
6,849.071 km
Eccentricity
0.00012
Inclination
53.1591°
RAAN
320.1305°
Arg. of periapsis
89.5896°
True anomaly
270.51046°
Mean anomaly
270.5245°
Eccentric anomaly
270.51748°
Mean motion
3.82909 °/min
Orbital period
94.02 mins
BSTAR
0.00032079
Loading maneuver chart data...
Computing Atmospheric mass density...
Loading historical data...
Loading historical data...
Loading historical data...
Loading historical data...
Loading historical data...
Loading historical data...
Loading historical data...

Documentation

Showing up to 5 results
|